HELLAS-SAT 4 & SGS-1

Last updated on Jan. 20, 2021, 6:22 a.m. UTC

1 44034U 19007A   21019.84182861  .00000158  00000-0  00000-0 0  9997
2 44034   0.0709 121.3285 0003288  48.3396 291.7800  1.00272562  7569
UTC
Height (km)
Latitude
Longitude
Inclination
Orbital Period
UTC large
Height (km)
Speed (km/s)
/
Latitude / Longitude
Inclination (degrees)
Orbital Period (minutes)
Azimuth
Elevation
Range (km)
Doppler Factor
iOS Compass Heading
iOS Angle

Next 30 passes for location: Hong Kong

Rise time Rise Azimuth (degrees) Set time Set Azimuth (degrees) Duration Max altitude (degrees)

No matching passes for this satellites